Location: Newark
(49.5647°N, 8.2922°E)
Time: 17:51:14
(UTC+00:00)

Transit 2A - Pass Details

Date: 22 February 2020
Orbit: 597 x 962 km, 66.7° (Epoch: 03 April)

Event Time Altitude Azimuth Distance (km) Brightness Sun altitude
Rises 17:27:29 0° 318° (NW) 2,936 9.5 -5.7°
Reaches altitude 10° 17:31:57 10° 359° (N) 2,108 8.2 -6.4°
Maximum altitude 17:32:52 10° 10° (N) 2,095 8.1 -6.5°
Drops below altitude 10° 17:33:47 10° 21° (NNE) 2,146 8.0 -6.7°
Enters shadow 17:36:54 - 51° (NE) 2,711 8.3 -7.2°
Sets 17:38:35 0° 62° (ENE) 3,178 - -7.5°
